, AK

(GMT )
Metlakatla

Weather History for PAMM - October, 2013

Change the Weather History Date:

Wednesday, October 9, 2013

  Actual Average Record
Temperature  
Mean Temperature 50 °F -  
Max Temperature 53 °F 50 °F 60 °F (2015)
Min Temperature 46 °F 43 °F 37 °F (2008)
Degree Days  
Heating Degree Days 16    
Moisture  
Dew Point 44 °F    
Average Humidity 81    
Maximum Humidity 94    
Minimum Humidity 62    
Precipitation  
Precipitation 0.72 in - - ()
Sea Level Pressure  
Sea Level Pressure 29.78 in    
Wind  
Wind Speed 12 mph (SSW)    
Max Wind Speed 25 mph    
Max Gust Speed 38 mph    
Visibility 8 miles    
Events      
Averages and records for this station are not official NWS values.
T = Trace of Precipitation, MM = Missing Value Source: NWS Daily Summary

Daily Weather History Graph

Daily Weather History Graph

Search for Another Location

Airport or City:

Trip Planner

Search our weather history database for the weather conditions in past years. The results will help you decide how hot, cold, wet, or windy it might be!

Date:

Astronomy

Oct. 09, 2013 Rise Set
Actual Time 7:04 AM AKDT 5:59 PM AKDT
Civil Twilight 6:27 AM AKDT 6:36 PM AKDT
Nautical Twilight 5:45 AM AKDT 7:18 PM AKDT
Astronomical Twilight 5:02 AM AKDT 8:00 PM AKDT
Moon 12:47 PM AKDT (10/9) 9:00 PM AKDT (10/9)
Length of Visible Light 12h 08m
Length of Day
10h 55m
Waxing Crescent, 27% of the Moon is Illuminated
Oct 9
Waxing Crescent
Oct 11
First Quarter
Oct 18
Full
Oct 26
Last Quarter
Nov 3
New

Hourly Weather History & Observations

Time (AKDT) Temp. Windchill Dew Point Humidity Pressure Visibility Wind Dir Wind Speed Gust Speed Precip Events Conditions
12:36 AM 48.2 °F - 46.4 °F 93% 29.95 in 5.0 mi SSE 8.1 mph - 0.01 in   Overcast
12:56 AM 48.2 °F - 46.4 °F 93% 29.94 in 3.0 mi South 8.1 mph - 0.02 in   Overcast
1:16 AM 48.2 °F - 46.4 °F 93% 29.92 in 3.0 mi SSE 9.2 mph 19.6 mph 0.01 in   Overcast
1:36 AM 48.2 °F - 46.4 °F 93% 29.90 in 4.0 mi SSE 10.4 mph 19.6 mph 0.03 in   Overcast
1:56 AM 48.2 °F - 46.4 °F 93% 29.89 in 5.0 mi SSE 9.2 mph 18.4 mph 0.04 in   Overcast
2:16 AM 48.2 °F - 46.4 °F 93% 29.87 in 4.0 mi SSE 10.4 mph 21.9 mph 0.01 in   Overcast
2:36 AM 48.2 °F - 46.4 °F 93% 29.85 in 3.0 mi SSE 15.0 mph 27.6 mph 0.04 in   Overcast
2:56 AM 48.2 °F - 46.4 °F 93% 29.83 in 5.0 mi SSE 13.8 mph 21.9 mph 0.06 in   Overcast
3:16 AM 48.2 °F - 46.4 °F 93% 29.80 in 6.0 mi SSE 13.8 mph 24.2 mph 0.03 in   Overcast
3:36 AM 50.0 °F - 46.4 °F 87% 29.78 in 7.0 mi SSE 13.8 mph 21.9 mph 0.08 in   Overcast
3:56 AM 50.0 °F - 46.4 °F 87% 29.76 in 7.0 mi SSE 10.4 mph 25.3 mph 0.12 in   Overcast
4:16 AM 50.0 °F - 46.4 °F 87% 29.73 in 7.0 mi SSE 12.7 mph 21.9 mph 0.05 in   Overcast
4:36 AM 50.0 °F - 46.4 °F 87% 29.72 in 7.0 mi SSE 17.3 mph 27.6 mph 0.10 in   Overcast
4:56 AM 50.0 °F - 46.4 °F 87% 29.71 in 7.0 mi South 17.3 mph 32.2 mph 0.15 in   Overcast
5:16 AM 50.0 °F - 48.2 °F 94% 29.69 in 5.0 mi South 15.0 mph 31.1 mph 0.05 in   Overcast
5:36 AM 50.0 °F - 48.2 °F 94% 29.68 in 5.0 mi South 16.1 mph 38.0 mph 0.12 in   Overcast
5:56 AM 50.0 °F - 46.4 °F 87% 29.66 in 6.0 mi South 13.8 mph 29.9 mph 0.20 in   Overcast
6:16 AM 50.0 °F - 46.4 °F 87% 29.64 in 5.0 mi SSE 16.1 mph 29.9 mph 0.08 in   Overcast
6:36 AM 50.0 °F - 46.4 °F 87% 29.63 in 5.0 mi South 17.3 mph 32.2 mph 0.12 in   Overcast
7:16 AM 51.8 °F - 48.2 °F 88% 29.61 in 5.0 mi South 17.3 mph 25.3 mph N/A   Overcast
7:36 AM 51.8 °F - 48.2 °F 88% 29.62 in 5.0 mi SSW 11.5 mph 28.8 mph N/A   Overcast
7:56 AM 51.8 °F - 48.2 °F 88% 29.62 in 3.0 mi SSW 13.8 mph 21.9 mph N/A   Overcast
8:16 AM 51.8 °F - 48.2 °F 88% 29.62 in 10.0 mi SW 25.3 mph 31.1 mph N/A   Overcast
8:36 AM 51.8 °F - 46.4 °F 82% 29.64 in 10.0 mi West 23.0 mph - N/A   Overcast
8:56 AM 51.8 °F - 46.4 °F 82% 29.65 in 10.0 mi West 18.4 mph - N/A   Overcast
9:16 AM 51.8 °F - 46.4 °F 82% 29.68 in 10.0 mi West 13.8 mph - N/A   Overcast
9:36 AM 51.8 °F - 44.6 °F 76% 29.69 in 10.0 mi West 11.5 mph - N/A   Mostly Cloudy
10:16 AM 51.8 °F - 42.8 °F 71% 29.72 in 10.0 mi WNW 15.0 mph - N/A   Overcast
11:16 AM 51.8 °F - 42.8 °F 71% 29.76 in 10.0 mi WSW 8.1 mph - N/A   Mostly Cloudy
11:36 AM 53.6 °F - 41.0 °F 62% 29.76 in 10.0 mi West 12.7 mph - N/A   Mostly Cloudy
11:56 AM 53.6 °F - 41.0 °F 62% 29.76 in 10.0 mi WSW 9.2 mph - N/A   Scattered Clouds
12:16 PM 53.6 °F - 42.8 °F 67% 29.77 in 10.0 mi SW 15.0 mph - N/A   Partly Cloudy
12:36 PM 51.8 °F - 42.8 °F 71% 29.77 in 10.0 mi WSW 20.7 mph - N/A   Mostly Cloudy
12:56 PM 51.8 °F - 42.8 °F 71% 29.78 in 10.0 mi WSW 15.0 mph - N/A   Mostly Cloudy
1:16 PM 51.8 °F - 42.8 °F 71% 29.78 in 10.0 mi SW 13.8 mph - N/A   Mostly Cloudy
1:36 PM 51.8 °F - 42.8 °F 71% 29.78 in 10.0 mi SW 10.4 mph - N/A   Overcast
1:56 PM 51.8 °F - 42.8 °F 71% 29.79 in 10.0 mi SW 11.5 mph 16.1 mph N/A   Overcast
2:16 PM 51.8 °F - 42.8 °F 71% 29.79 in 10.0 mi SW 15.0 mph - N/A   Overcast
2:36 PM 51.8 °F - 42.8 °F 71% 29.78 in 10.0 mi SW 16.1 mph 20.7 mph N/A   Overcast
2:56 PM 51.8 °F - 42.8 °F 71% 29.78 in 10.0 mi SW 17.3 mph - N/A   Overcast
3:36 PM 51.8 °F - 42.8 °F 71% 29.79 in 10.0 mi SW 15.0 mph 19.6 mph N/A   Overcast
3:56 PM 50.0 °F - 41.0 °F 71% 29.79 in 10.0 mi SW 11.5 mph 16.1 mph N/A   Overcast
4:16 PM 50.0 °F - 41.0 °F 71% 29.80 in 10.0 mi SW 9.2 mph - N/A   Mostly Cloudy
4:36 PM 50.0 °F - 41.0 °F 71% 29.80 in 10.0 mi SW 12.7 mph - N/A   Mostly Cloudy
4:56 PM 48.2 °F - 42.8 °F 82% 29.79 in 9.0 mi SW 10.4 mph - 0.01 in   Overcast
5:16 PM 48.2 °F - 41.0 °F 76% 29.78 in 10.0 mi SW 9.2 mph - N/A   Scattered Clouds
5:36 PM 48.2 °F - 42.8 °F 82% 29.78 in 10.0 mi SSW 6.9 mph - N/A   Clear
5:56 PM 48.2 °F - 42.8 °F 82% 29.80 in 10.0 mi SSW 8.1 mph - N/A   Scattered Clouds
6:16 PM 48.2 °F - 41.0 °F 76% 29.81 in 10.0 mi SSW 8.1 mph - N/A   Overcast
6:36 PM 48.2 °F - 42.8 °F 82% 29.81 in 10.0 mi SW 9.2 mph 17.3 mph N/A   Overcast
6:56 PM 48.2 °F - 42.8 °F 82% 29.82 in 10.0 mi SW 13.8 mph - N/A   Overcast
7:16 PM 50.0 °F - 42.8 °F 76% 29.82 in 10.0 mi WSW 17.3 mph - N/A   Overcast
7:36 PM 48.2 °F - 42.8 °F 82% 29.82 in 9.0 mi WSW 16.1 mph - N/A   Overcast
7:56 PM 48.2 °F - 42.8 °F 82% 29.82 in 10.0 mi WSW 13.8 mph - N/A   Mostly Cloudy
8:16 PM 50.0 °F - 41.0 °F 71% 29.83 in 10.0 mi WNW 6.9 mph - N/A   Mostly Cloudy
8:36 PM 48.2 °F - 41.0 °F 76% 29.84 in 10.0 mi West 5.8 mph - N/A   Mostly Cloudy
8:56 PM 48.2 °F - 41.0 °F 76% 29.85 in 10.0 mi WSW 5.8 mph - N/A   Mostly Cloudy
9:16 PM 48.2 °F - 42.8 °F 82% 29.85 in 10.0 mi WSW 12.7 mph - N/A   Mostly Cloudy
9:36 PM 48.2 °F - 42.8 °F 82% 29.86 in 10.0 mi WSW 12.7 mph - N/A   Overcast
9:56 PM 48.2 °F - 42.8 °F 82% 29.87 in 10.0 mi WSW 10.4 mph - N/A   Overcast
10:16 PM 48.2 °F - 42.8 °F 82% 29.87 in 10.0 mi WSW 8.1 mph - N/A   Overcast
10:36 PM 48.2 °F - 42.8 °F 82% 29.87 in 10.0 mi WSW 9.2 mph - N/A   Overcast
11:16 PM 46.4 °F 43.5 °F 39.2 °F 76% 29.89 in 10.0 mi South 5.8 mph - N/A   Mostly Cloudy
11:36 PM 46.4 °F 43.5 °F 39.2 °F 76% 29.89 in 10.0 mi SW 5.8 mph - N/A   Mostly Cloudy
11:56 PM 48.2 °F - 41.0 °F 76% 29.90 in 10.0 mi WSW 15.0 mph - N/A   Overcast